Year,Month,Day,Hour,Minute,Value (Times are PST for temperature in C)
2018,08,19,00,00,12.80
2018,08,19,00,01,12.80
2018,08,19,00,02,12.70
2018,08,19,00,03,12.70
2018,08,19,00,04,12.60
2018,08,19,00,05,12.50
2018,08,19,00,06,12.50
2018,08,19,00,07,12.40
2018,08,19,00,08,12.40
2018,08,19,00,09,12.40
2018,08,19,00,10,12.60
2018,08,19,00,11,12.70
2018,08,19,00,12,12.80
2018,08,19,00,13,13.00
2018,08,19,00,14,13.00
2018,08,19,00,15,12.90
2018,08,19,00,16,12.80
2018,08,19,00,17,12.70
2018,08,19,00,18,12.70
2018,08,19,00,19,12.80
2018,08,19,00,20,13.00
2018,08,19,00,21,13.10
2018,08,19,00,22,13.30
2018,08,19,00,23,13.40
2018,08,19,00,24,13.50
2018,08,19,00,25,13.60
2018,08,19,00,26,13.70
2018,08,19,00,27,13.70
2018,08,19,00,28,13.70
2018,08,19,00,29,13.50
2018,08,19,00,30,13.40
2018,08,19,00,31,13.20
2018,08,19,00,32,13.10
2018,08,19,00,33,13.20
2018,08,19,00,34,13.20
2018,08,19,00,35,13.30
2018,08,19,00,36,13.30
2018,08,19,00,37,13.40
2018,08,19,00,38,13.40
2018,08,19,00,39,13.40
2018,08,19,00,40,13.40
2018,08,19,00,41,13.40
2018,08,19,00,42,13.50
2018,08,19,00,43,13.60
2018,08,19,00,44,13.70
2018,08,19,00,45,13.70
2018,08,19,00,46,13.80
2018,08,19,00,47,13.90
2018,08,19,00,48,13.90
2018,08,19,00,49,13.90
2018,08,19,00,50,13.90
2018,08,19,00,51,13.90
2018,08,19,00,52,13.90
2018,08,19,00,53,13.80
2018,08,19,00,54,13.70
2018,08,19,00,55,13.70
2018,08,19,00,56,13.60
2018,08,19,00,57,13.60
2018,08,19,00,58,13.60
2018,08,19,00,59,13.50
2018,08,19,01,00,13.50
2018,08,19,01,01,13.40
2018,08,19,01,02,13.40
2018,08,19,01,03,13.40
2018,08,19,01,04,13.30
2018,08,19,01,05,13.30
2018,08,19,01,06,13.30
2018,08,19,01,07,13.20
2018,08,19,01,08,13.20
2018,08,19,01,09,13.00
2018,08,19,01,10,12.90
2018,08,19,01,11,12.80
2018,08,19,01,12,12.70
2018,08,19,01,13,12.60
2018,08,19,01,14,12.50
2018,08,19,01,15,12.40
2018,08,19,01,16,12.30
2018,08,19,01,17,12.30
2018,08,19,01,18,12.30
2018,08,19,01,19,12.10
2018,08,19,01,20,12.10
2018,08,19,01,21,12.00
2018,08,19,01,22,12.00
2018,08,19,01,23,11.90
2018,08,19,01,24,11.80
2018,08,19,01,25,11.80
2018,08,19,01,26,11.80
2018,08,19,01,27,11.80
2018,08,19,01,28,11.80
2018,08,19,01,29,11.90
2018,08,19,01,30,12.00
2018,08,19,01,31,12.00
2018,08,19,01,32,12.00
2018,08,19,01,33,12.10
2018,08,19,01,34,12.20
2018,08,19,01,35,12.30
2018,08,19,01,36,12.30
2018,08,19,01,37,12.20
2018,08,19,01,38,12.10
2018,08,19,01,39,12.00
2018,08,19,01,40,11.90
2018,08,19,01,41,11.90
2018,08,19,01,42,11.80
2018,08,19,01,43,11.80
2018,08,19,01,44,11.80
2018,08,19,01,45,11.70
2018,08,19,01,46,11.70
2018,08,19,01,47,11.70
2018,08,19,01,48,11.70
2018,08,19,01,49,11.70
2018,08,19,01,50,11.70
2018,08,19,01,51,11.80
2018,08,19,01,52,11.80
2018,08,19,01,53,11.70
2018,08,19,01,54,11.70
2018,08,19,01,55,11.70
2018,08,19,01,56,11.70
2018,08,19,01,57,11.70
2018,08,19,01,58,11.70
2018,08,19,01,59,11.70
2018,08,19,02,00,11.70
2018,08,19,02,01,11.70
2018,08,19,02,02,11.70
2018,08,19,02,03,11.70
2018,08,19,02,04,11.70
2018,08,19,02,05,11.70
2018,08,19,02,06,11.70
2018,08,19,02,07,11.70
2018,08,19,02,08,11.70
2018,08,19,02,09,11.70
2018,08,19,02,10,11.70
2018,08,19,02,11,11.80
2018,08,19,02,12,11.80
2018,08,19,02,13,11.80
2018,08,19,02,14,11.80
2018,08,19,02,15,11.80
2018,08,19,02,16,11.80
2018,08,19,02,17,11.80
2018,08,19,02,18,11.80
2018,08,19,02,19,11.80
2018,08,19,02,20,11.80
2018,08,19,02,21,11.80
2018,08,19,02,22,11.80
2018,08,19,02,23,11.80
2018,08,19,02,24,11.80
2018,08,19,02,25,11.80
2018,08,19,02,26,11.80
2018,08,19,02,27,11.90
2018,08,19,02,28,12.00
2018,08,19,02,29,12.00
2018,08,19,02,30,12.00
2018,08,19,02,31,12.00
2018,08,19,02,32,11.90
2018,08,19,02,33,11.90
2018,08,19,02,34,11.90
2018,08,19,02,35,11.90
2018,08,19,02,36,11.90
2018,08,19,02,37,11.90
2018,08,19,02,38,11.90
2018,08,19,02,39,11.90
2018,08,19,02,40,11.90
2018,08,19,02,41,11.90
2018,08,19,02,42,11.90
2018,08,19,02,43,11.90
2018,08,19,02,44,11.90
2018,08,19,02,45,11.90
2018,08,19,02,46,12.00
2018,08,19,02,47,12.00
2018,08,19,02,48,12.00
2018,08,19,02,49,12.00
2018,08,19,02,50,12.00
2018,08,19,02,51,12.00
2018,08,19,02,52,12.10
2018,08,19,02,53,12.10
2018,08,19,02,54,12.10
2018,08,19,02,55,12.20
2018,08,19,02,56,12.30
2018,08,19,02,57,12.30
2018,08,19,02,58,12.40
2018,08,19,02,59,12.50
2018,08,19,03,00,12.60
2018,08,19,03,01,12.70
2018,08,19,03,02,12.80
2018,08,19,03,03,12.80
2018,08,19,03,04,12.90
2018,08,19,03,05,12.90
2018,08,19,03,06,13.00
2018,08,19,03,07,13.00
2018,08,19,03,08,13.10
2018,08,19,03,09,13.20
2018,08,19,03,10,13.20
2018,08,19,03,11,13.20
2018,08,19,03,12,13.30
2018,08,19,03,13,13.30
2018,08,19,03,14,13.30
2018,08,19,03,15,13.40
2018,08,19,03,16,13.40
2018,08,19,03,17,13.40
2018,08,19,03,18,13.40
2018,08,19,03,19,13.50
2018,08,19,03,20,13.50
2018,08,19,03,21,13.60
2018,08,19,03,22,13.60
2018,08,19,03,23,13.60
2018,08,19,03,24,13.70
2018,08,19,03,25,13.70
2018,08,19,03,26,13.70
2018,08,19,03,27,13.70
2018,08,19,03,28,13.70
2018,08,19,03,29,13.70
2018,08,19,03,30,13.70
2018,08,19,03,31,13.70
2018,08,19,03,32,13.70
2018,08,19,03,33,13.70
2018,08,19,03,34,13.70
2018,08,19,03,35,13.80
2018,08,19,03,36,13.70
2018,08,19,03,37,13.60
2018,08,19,03,38,13.50
2018,08,19,03,39,13.40
2018,08,19,03,40,13.30
2018,08,19,03,41,13.30
2018,08,19,03,42,13.30
2018,08,19,03,43,13.30
2018,08,19,03,44,13.30
2018,08,19,03,45,13.30
2018,08,19,03,46,13.30
2018,08,19,03,47,13.30
2018,08,19,03,48,13.30
2018,08,19,03,49,13.40
2018,08,19,03,50,13.60
2018,08,19,03,51,13.70
2018,08,19,03,52,13.80
2018,08,19,03,53,13.80
2018,08,19,03,54,13.90
2018,08,19,03,55,13.90
2018,08,19,03,56,13.90
2018,08,19,03,57,13.90
2018,08,19,03,58,13.90
2018,08,19,03,59,13.90
2018,08,19,04,00,13.90
2018,08,19,04,01,13.90
2018,08,19,04,02,13.90
2018,08,19,04,03,13.90
2018,08,19,04,04,13.90
2018,08,19,04,05,13.90
2018,08,19,04,06,13.90
2018,08,19,04,07,13.90
2018,08,19,04,08,13.90
2018,08,19,04,09,13.90
2018,08,19,04,10,13.90
2018,08,19,04,11,13.90
2018,08,19,04,12,13.90
2018,08,19,04,13,13.90
2018,08,19,04,14,13.90
2018,08,19,04,15,13.90
2018,08,19,04,16,13.90
2018,08,19,04,17,13.90
2018,08,19,04,18,14.00
2018,08,19,04,19,14.00
2018,08,19,04,20,14.10
2018,08,19,04,21,14.10
2018,08,19,04,22,14.10
2018,08,19,04,23,14.10
2018,08,19,04,24,14.10
2018,08,19,04,25,14.10
2018,08,19,04,26,14.10
2018,08,19,04,27,14.20
2018,08,19,04,28,14.20
2018,08,19,04,29,14.20
2018,08,19,04,30,14.20
2018,08,19,04,31,14.20
2018,08,19,04,32,14.20
2018,08,19,04,33,14.20
2018,08,19,04,34,14.20
2018,08,19,04,35,14.00
2018,08,19,04,36,13.70
2018,08,19,04,37,13.50
2018,08,19,04,38,13.30
2018,08,19,04,39,13.20
2018,08,19,04,40,13.10
2018,08,19,04,41,13.00
2018,08,19,04,42,13.00
2018,08,19,04,43,13.00
2018,08,19,04,44,12.90
2018,08,19,04,45,12.80
2018,08,19,04,46,12.70
2018,08,19,04,47,12.70
2018,08,19,04,48,12.70
2018,08,19,04,49,12.60
2018,08,19,04,50,12.60
2018,08,19,04,51,12.60
2018,08,19,04,52,12.70
2018,08,19,04,53,12.70
2018,08,19,04,54,12.70
2018,08,19,04,55,12.70
2018,08,19,04,56,12.70
2018,08,19,04,57,12.70
2018,08,19,04,58,12.60
2018,08,19,04,59,12.60
2018,08,19,05,00,12.60
2018,08,19,05,01,12.60
2018,08,19,05,02,12.60
2018,08,19,05,03,12.60
2018,08,19,05,04,12.70
2018,08,19,05,05,12.70
2018,08,19,05,06,12.70
2018,08,19,05,07,12.70
2018,08,19,05,08,12.70
2018,08,19,05,09,12.80
2018,08,19,05,10,12.70
2018,08,19,05,11,12.80
2018,08,19,05,12,12.80
2018,08,19,05,13,12.80
2018,08,19,05,14,12.80
2018,08,19,05,15,12.80
2018,08,19,05,16,12.80
2018,08,19,05,17,12.70
2018,08,19,05,18,12.70
2018,08,19,05,19,12.70
2018,08,19,05,20,12.80
2018,08,19,05,21,12.90
2018,08,19,05,22,12.90
2018,08,19,05,23,13.00
2018,08,19,05,24,13.00
2018,08,19,05,25,12.90
2018,08,19,05,26,12.80
2018,08,19,05,27,12.60
2018,08,19,05,28,12.40
2018,08,19,05,29,12.30
2018,08,19,05,30,12.20
2018,08,19,05,31,12.10
2018,08,19,05,32,12.00
2018,08,19,05,33,12.00
2018,08,19,05,34,12.00
2018,08,19,05,35,11.70
2018,08,19,05,36,11.70
2018,08,19,05,37,11.60
2018,08,19,05,38,11.60
2018,08,19,05,39,11.60
2018,08,19,05,40,11.50
2018,08,19,05,41,11.50
2018,08,19,05,42,11.50
2018,08,19,05,43,11.40
2018,08,19,05,44,11.40
2018,08,19,05,45,11.40
2018,08,19,05,46,11.40
2018,08,19,05,47,11.30
2018,08,19,05,48,11.30
2018,08,19,05,49,11.30
2018,08,19,05,50,11.30
2018,08,19,05,51,11.30
2018,08,19,05,52,11.30
2018,08,19,05,53,11.30
2018,08,19,05,54,11.20
2018,08,19,05,55,11.20
2018,08,19,05,56,11.20
2018,08,19,05,57,11.20
2018,08,19,05,58,11.20
2018,08,19,05,59,11.20
2018,08,19,06,00,11.20
2018,08,19,06,01,11.20
2018,08,19,06,02,11.20
2018,08,19,06,03,11.20
2018,08,19,06,04,11.20
2018,08,19,06,05,11.20
2018,08,19,06,06,11.20
2018,08,19,06,07,11.20
2018,08,19,06,08,11.20
2018,08,19,06,09,11.20
2018,08,19,06,10,11.20
2018,08,19,06,11,11.20
2018,08,19,06,12,11.20
2018,08,19,06,13,11.20
2018,08,19,06,14,11.20
2018,08,19,06,15,11.20
2018,08,19,06,16,11.20
2018,08,19,06,17,11.20
2018,08,19,06,18,11.10
2018,08,19,06,19,11.10
2018,08,19,06,20,11.20
2018,08,19,06,21,11.20
2018,08,19,06,22,11.20
2018,08,19,06,23,11.20
2018,08,19,06,24,11.20
2018,08,19,06,25,11.20
2018,08,19,06,26,11.20
2018,08,19,06,27,11.20
2018,08,19,06,28,11.20
2018,08,19,06,29,11.20
2018,08,19,06,30,11.20
2018,08,19,06,31,11.30
2018,08,19,06,32,11.40
2018,08,19,06,33,11.40
2018,08,19,06,34,11.60
2018,08,19,06,35,11.60
2018,08,19,06,36,11.60
2018,08,19,06,37,11.80
2018,08,19,06,38,11.80
2018,08,19,06,39,11.80
2018,08,19,06,40,11.80
2018,08,19,06,41,11.70
2018,08,19,06,42,11.70
2018,08,19,06,43,11.60
2018,08,19,06,44,11.60
2018,08,19,06,45,11.50
2018,08,19,06,46,11.50
2018,08,19,06,47,11.50
2018,08,19,06,48,11.40
2018,08,19,06,49,11.40
2018,08,19,06,50,11.50
2018,08,19,06,51,11.50
2018,08,19,06,52,11.50
2018,08,19,06,53,11.60
2018,08,19,06,54,11.60
2018,08,19,06,55,11.60
2018,08,19,06,56,11.60
2018,08,19,06,57,11.50
2018,08,19,06,58,11.50
2018,08,19,06,59,11.40
2018,08,19,07,00,11.40
2018,08,19,07,01,11.40
2018,08,19,07,02,11.40
2018,08,19,07,03,11.40
2018,08,19,07,04,11.30
2018,08,19,07,05,11.30
2018,08,19,07,06,11.30
2018,08,19,07,07,11.20
2018,08,19,07,08,11.20
2018,08,19,07,09,11.20
2018,08,19,07,10,11.20
2018,08,19,07,11,11.10
2018,08,19,07,12,11.10
2018,08,19,07,13,11.10
2018,08,19,07,14,11.10
2018,08,19,07,15,11.10
2018,08,19,07,16,11.10
2018,08,19,07,17,11.10
2018,08,19,07,18,11.00
2018,08,19,07,19,11.00
2018,08,19,07,20,11.00
2018,08,19,07,21,11.00
2018,08,19,07,22,11.00
2018,08,19,07,23,11.00
2018,08,19,07,24,11.10
2018,08,19,07,25,11.10
2018,08,19,07,26,11.10
2018,08,19,07,27,11.10
2018,08,19,07,28,11.10
2018,08,19,07,29,11.20
2018,08,19,07,30,11.20
2018,08,19,07,31,11.30
2018,08,19,07,32,11.30
2018,08,19,07,33,11.30
2018,08,19,07,34,11.30
2018,08,19,07,35,11.30
2018,08,19,07,36,11.20
2018,08,19,07,37,11.30
2018,08,19,07,38,11.30
2018,08,19,07,39,11.30
2018,08,19,07,40,11.40
2018,08,19,07,41,11.40
2018,08,19,07,42,11.30
2018,08,19,07,43,11.30
2018,08,19,07,44,11.40
2018,08,19,07,45,11.40
2018,08,19,07,46,11.40
2018,08,19,07,47,11.40
2018,08,19,07,48,11.50
2018,08,19,07,49,11.50
2018,08,19,07,50,11.60
2018,08,19,07,51,11.60
2018,08,19,07,52,11.60
2018,08,19,07,53,11.60
2018,08,19,07,54,11.60
2018,08,19,07,55,11.70
2018,08,19,07,56,11.70
2018,08,19,07,57,11.70
2018,08,19,07,58,11.70
2018,08,19,07,59,11.70
2018,08,19,08,00,11.80
2018,08,19,08,01,11.80
2018,08,19,08,02,11.80
2018,08,19,08,03,11.80
2018,08,19,08,04,11.80
2018,08,19,08,05,11.80
2018,08,19,08,06,11.80
2018,08,19,08,07,11.90
2018,08,19,08,08,11.90
2018,08,19,08,09,11.90
2018,08,19,08,10,11.90
2018,08,19,08,11,11.90
2018,08,19,08,12,12.00
2018,08,19,08,13,12.00
2018,08,19,08,14,12.00
2018,08,19,08,15,12.00
2018,08,19,08,16,12.00
2018,08,19,08,17,11.90
2018,08,19,08,18,11.90
2018,08,19,08,19,11.90
2018,08,19,08,20,11.90
2018,08,19,08,21,11.90
2018,08,19,08,22,11.90
2018,08,19,08,23,11.90
2018,08,19,08,24,11.90
2018,08,19,08,25,11.80
2018,08,19,08,26,11.80
2018,08,19,08,27,11.80
2018,08,19,08,28,11.80
2018,08,19,08,29,11.70
2018,08,19,08,30,11.70
2018,08,19,08,31,11.70
2018,08,19,08,32,11.70
2018,08,19,08,33,11.60
2018,08,19,08,34,11.60
2018,08,19,08,35,11.60
2018,08,19,08,36,11.60
2018,08,19,08,37,11.70
2018,08,19,08,38,11.70
2018,08,19,08,39,11.80
2018,08,19,08,40,11.80
2018,08,19,08,41,11.80
2018,08,19,08,42,11.80
2018,08,19,08,43,11.90
2018,08,19,08,44,12.00
2018,08,19,08,45,12.00
2018,08,19,08,46,12.10
2018,08,19,08,47,12.20
2018,08,19,08,48,12.50
2018,08,19,08,49,12.70
2018,08,19,08,50,13.00
2018,08,19,08,51,13.20
2018,08,19,08,52,13.50
2018,08,19,08,53,13.70
2018,08,19,08,54,14.00
2018,08,19,08,55,14.20
2018,08,19,08,56,14.40
2018,08,19,08,57,14.50
2018,08,19,08,58,14.60
2018,08,19,08,59,14.70
2018,08,19,09,00,14.80
2018,08,19,09,01,14.80
2018,08,19,09,02,14.90
2018,08,19,09,03,14.90
2018,08,19,09,04,15.00
2018,08,19,09,05,15.10
2018,08,19,09,06,15.10
2018,08,19,09,07,15.10
2018,08,19,09,08,15.10
2018,08,19,09,09,15.20
2018,08,19,09,10,15.20
2018,08,19,09,11,15.30
2018,08,19,09,12,15.30
2018,08,19,09,13,15.30
2018,08,19,09,14,15.30
2018,08,19,09,15,15.30
2018,08,19,09,16,15.30
2018,08,19,09,17,15.30
2018,08,19,09,18,15.20
2018,08,19,09,19,15.20
2018,08,19,09,20,15.10
2018,08,19,09,21,15.10
2018,08,19,09,22,15.00
2018,08,19,09,23,14.70
2018,08,19,09,24,14.60
2018,08,19,09,25,14.50
2018,08,19,09,26,14.60
2018,08,19,09,27,14.70
2018,08,19,09,28,14.70
2018,08,19,09,29,14.70
2018,08,19,09,30,14.80
2018,08,19,09,31,14.80
2018,08,19,09,32,14.80
2018,08,19,09,33,14.90
2018,08,19,09,34,14.90
2018,08,19,09,35,14.80
2018,08,19,09,36,14.80
2018,08,19,09,37,14.80
2018,08,19,09,38,14.90
2018,08,19,09,39,14.90
2018,08,19,09,40,15.00
2018,08,19,09,41,15.00
2018,08,19,09,42,15.10
2018,08,19,09,43,15.10
2018,08,19,09,44,15.10
2018,08,19,09,45,15.10
2018,08,19,09,46,15.10
2018,08,19,09,47,15.20
2018,08,19,09,48,15.20
2018,08,19,09,49,15.30
2018,08,19,09,50,15.30
2018,08,19,09,51,15.30
2018,08,19,09,52,15.20
2018,08,19,09,53,15.20
2018,08,19,09,54,15.30
2018,08,19,09,55,15.30
2018,08,19,09,56,15.40
2018,08,19,09,57,15.40
2018,08,19,09,58,15.50
2018,08,19,09,59,15.60
2018,08,19,10,00,15.50
2018,08,19,10,01,15.30
2018,08,19,10,02,15.10
2018,08,19,10,03,14.80
2018,08,19,10,04,14.50
2018,08,19,10,05,14.30
2018,08,19,10,06,14.10
2018,08,19,10,07,13.90
2018,08,19,10,08,13.70
2018,08,19,10,09,13.60
2018,08,19,10,10,13.60
2018,08,19,10,11,13.70
2018,08,19,10,12,13.90
2018,08,19,10,13,13.80
2018,08,19,10,14,13.60
2018,08,19,10,15,13.40
2018,08,19,10,16,13.20
2018,08,19,10,17,13.00
2018,08,19,10,18,13.00
2018,08,19,10,19,12.90
2018,08,19,10,20,12.90
2018,08,19,10,21,12.80
2018,08,19,10,22,12.80
2018,08,19,10,23,12.70
2018,08,19,10,24,12.80
2018,08,19,10,25,12.80
2018,08,19,10,26,12.80
2018,08,19,10,27,12.80
2018,08,19,10,28,12.80
2018,08,19,10,29,12.90
2018,08,19,10,30,12.90
2018,08,19,10,31,12.90
2018,08,19,10,32,12.90
2018,08,19,10,33,12.90
2018,08,19,10,34,12.90
2018,08,19,10,35,12.90
2018,08,19,10,36,13.00
2018,08,19,10,37,13.20
2018,08,19,10,38,13.50
2018,08,19,10,39,13.70
2018,08,19,10,40,14.00
2018,08,19,10,41,14.20
2018,08,19,10,42,14.50
2018,08,19,10,43,14.70
2018,08,19,10,44,14.90
2018,08,19,10,45,15.00
2018,08,19,10,46,15.20
2018,08,19,10,47,15.30
2018,08,19,10,48,15.50
2018,08,19,10,49,15.50
2018,08,19,10,50,15.50
2018,08,19,10,51,15.50
2018,08,19,10,52,15.50
2018,08,19,10,53,15.50
2018,08,19,10,54,15.50
2018,08,19,10,55,15.60
2018,08,19,10,56,15.60
2018,08,19,10,57,15.70
2018,08,19,10,58,15.80
2018,08,19,10,59,15.80
2018,08,19,11,00,15.90
2018,08,19,11,01,15.90
2018,08,19,11,02,16.00
2018,08,19,11,03,16.10
2018,08,19,11,04,16.10
2018,08,19,11,05,16.10
2018,08,19,11,06,16.10
2018,08,19,11,07,15.70
2018,08,19,11,08,15.10
2018,08,19,11,09,14.60
2018,08,19,11,10,14.30
2018,08,19,11,11,14.10
2018,08,19,11,12,13.90
2018,08,19,11,13,13.70
2018,08,19,11,14,13.60
2018,08,19,11,15,13.40
2018,08,19,11,16,13.20
2018,08,19,11,17,13.00
2018,08,19,11,18,12.90
2018,08,19,11,19,12.80
2018,08,19,11,20,12.80
2018,08,19,11,21,12.70
2018,08,19,11,22,12.70
2018,08,19,11,23,12.70
2018,08,19,11,24,12.60
2018,08,19,11,25,12.70
2018,08,19,11,26,12.70
2018,08,19,11,27,12.80
2018,08,19,11,28,12.80
2018,08,19,11,29,12.80
2018,08,19,11,30,12.80
2018,08,19,11,31,12.80
2018,08,19,11,32,12.80
2018,08,19,11,33,12.70
2018,08,19,11,34,12.70
2018,08,19,11,35,12.70
2018,08,19,11,36,12.70
2018,08,19,11,37,12.60
2018,08,19,11,38,12.60
2018,08,19,11,39,12.60
2018,08,19,11,40,12.60
2018,08,19,11,41,12.60
2018,08,19,11,42,12.60
2018,08,19,11,43,12.60
2018,08,19,11,44,12.60
2018,08,19,11,45,12.50
2018,08,19,11,46,12.50
2018,08,19,11,47,12.60
2018,08,19,11,48,12.70
2018,08,19,11,49,12.80
2018,08,19,11,50,12.80
2018,08,19,11,51,12.90
2018,08,19,11,52,13.00
2018,08,19,11,53,13.00
2018,08,19,11,54,13.10
2018,08,19,11,55,13.00
2018,08,19,11,56,12.90
2018,08,19,11,57,12.80
2018,08,19,11,58,12.60
2018,08,19,11,59,12.50
2018,08,19,12,00,12.50
2018,08,19,12,01,12.40
2018,08,19,12,02,12.30
2018,08,19,12,03,12.30
2018,08,19,12,04,12.30
2018,08,19,12,05,12.20
2018,08,19,12,06,12.20
2018,08,19,12,07,12.20
2018,08,19,12,08,12.20
2018,08,19,12,09,12.20
2018,08,19,12,10,12.20
2018,08,19,12,11,12.20
2018,08,19,12,12,12.20
2018,08,19,12,13,12.30
2018,08,19,12,14,12.30
2018,08,19,12,15,12.30
2018,08,19,12,16,12.30
2018,08,19,12,17,12.30
2018,08,19,12,18,12.30
2018,08,19,12,19,12.20
2018,08,19,12,20,12.20
2018,08,19,12,21,12.20
2018,08,19,12,22,12.20
2018,08,19,12,23,12.20
2018,08,19,12,24,12.20
2018,08,19,12,25,12.20
2018,08,19,12,26,12.10
2018,08,19,12,27,12.10
2018,08,19,12,28,12.10
2018,08,19,12,29,12.10
2018,08,19,12,30,12.10
2018,08,19,13,06,13.70
2018,08,19,13,07,13.80
2018,08,19,13,08,13.90
2018,08,19,13,09,13.90
2018,08,19,13,10,14.00
2018,08,19,13,11,14.00
2018,08,19,13,12,14.10
2018,08,19,13,13,14.10
2018,08,19,13,14,14.10
2018,08,19,13,15,14.20
2018,08,19,13,16,14.30
2018,08,19,13,17,14.40
2018,08,19,13,18,14.40
2018,08,19,13,19,14.40
2018,08,19,13,20,14.40
2018,08,19,13,21,14.50
2018,08,19,13,22,14.60
2018,08,19,13,23,14.60
2018,08,19,13,24,14.70
2018,08,19,13,25,14.70
2018,08,19,13,26,14.70
2018,08,19,13,27,14.70
2018,08,19,13,28,14.70
2018,08,19,13,29,14.80
2018,08,19,13,30,14.80
2018,08,19,13,31,14.80
2018,08,19,13,32,14.80
2018,08,19,13,33,14.80
2018,08,19,13,34,14.70
2018,08,19,13,35,14.60
2018,08,19,13,36,14.60
2018,08,19,13,37,14.50
2018,08,19,13,38,14.50
2018,08,19,13,39,14.50
2018,08,19,13,40,14.40
2018,08,19,13,41,14.40
2018,08,19,13,42,14.30
2018,08,19,13,43,14.30
2018,08,19,13,44,14.30
2018,08,19,13,45,14.30
2018,08,19,13,46,14.30
2018,08,19,13,47,14.20
2018,08,19,13,48,14.20
2018,08,19,13,49,14.10
2018,08,19,13,50,14.10
2018,08,19,13,51,14.00
2018,08,19,13,52,14.00
2018,08,19,13,53,13.90
2018,08,19,13,54,13.90
2018,08,19,13,55,13.90
2018,08,19,13,56,13.90
2018,08,19,13,57,13.90
2018,08,19,13,58,14.00
2018,08,19,13,59,14.10
2018,08,19,14,00,14.10
2018,08,19,14,01,14.20
2018,08,19,14,02,14.20
2018,08,19,14,03,14.30
2018,08,19,14,04,14.30
2018,08,19,14,05,14.30
2018,08,19,14,06,14.30
2018,08,19,14,07,14.30
2018,08,19,14,08,14.30
2018,08,19,14,09,14.10
2018,08,19,14,10,14.00
2018,08,19,14,11,13.90
2018,08,19,14,12,13.80
2018,08,19,14,13,13.70
2018,08,19,14,14,13.70
2018,08,19,14,15,13.80
2018,08,19,14,16,13.80
2018,08,19,14,17,13.80
2018,08,19,14,18,13.80
2018,08,19,14,19,13.90
2018,08,19,14,20,13.90
2018,08,19,14,21,13.90
2018,08,19,14,22,13.80
2018,08,19,14,23,13.80
2018,08,19,14,24,13.70
2018,08,19,14,25,13.70
2018,08,19,14,26,13.70
2018,08,19,14,27,13.70
2018,08,19,14,28,13.80
2018,08,19,14,29,13.80
2018,08,19,14,30,13.80
2018,08,19,14,31,13.90
2018,08,19,14,32,13.90
2018,08,19,14,33,13.90
2018,08,19,14,34,14.00
2018,08,19,14,35,14.00
2018,08,19,14,36,14.10
2018,08,19,14,37,14.10
2018,08,19,14,38,14.10
2018,08,19,14,39,14.10
2018,08,19,14,40,14.10
2018,08,19,14,41,14.10
2018,08,19,14,42,14.00
2018,08,19,14,43,14.00
2018,08,19,14,44,13.90
2018,08,19,14,45,13.90
2018,08,19,14,46,13.90
2018,08,19,14,47,13.90
2018,08,19,14,48,13.90
2018,08,19,14,49,13.90
2018,08,19,14,50,13.80
2018,08,19,14,51,13.80
2018,08,19,14,52,13.70
2018,08,19,14,53,13.70
2018,08,19,14,54,13.60
2018,08,19,14,55,13.60
2018,08,19,14,56,13.60
2018,08,19,14,57,13.50
2018,08,19,14,58,13.50
2018,08,19,14,59,13.40
2018,08,19,15,00,13.40
2018,08,19,15,01,13.40
2018,08,19,15,02,13.30
2018,08,19,15,03,13.30
2018,08,19,15,04,13.20
2018,08,19,15,05,13.20
2018,08,19,15,06,13.20
2018,08,19,15,07,13.10
2018,08,19,15,08,13.10
2018,08,19,15,09,13.00
2018,08,19,15,10,13.00
2018,08,19,15,11,13.00
2018,08,19,15,12,13.00
2018,08,19,15,13,13.00
2018,08,19,15,14,12.90
2018,08,19,15,15,12.90
2018,08,19,15,16,12.90
2018,08,19,15,17,12.90
2018,08,19,15,18,12.90
2018,08,19,15,19,12.90
2018,08,19,15,20,12.90
2018,08,19,15,21,12.80
2018,08,19,15,22,12.80
2018,08,19,15,23,12.80
2018,08,19,15,24,12.80
2018,08,19,15,25,12.70
2018,08,19,15,26,12.70
2018,08,19,15,27,12.70
2018,08,19,15,28,12.70
2018,08,19,15,29,12.60
2018,08,19,15,30,12.60
2018,08,19,15,31,12.60
2018,08,19,15,32,12.60
2018,08,19,15,33,12.70
2018,08,19,15,34,12.70
2018,08,19,15,35,12.70
2018,08,19,15,36,12.70
2018,08,19,15,37,12.80
2018,08,19,15,38,12.80
2018,08,19,15,39,12.90
2018,08,19,15,40,12.90
2018,08,19,15,41,13.00
2018,08,19,15,42,13.00
2018,08,19,15,43,13.00
2018,08,19,15,44,13.10
2018,08,19,15,45,13.40
2018,08,19,15,46,13.60
2018,08,19,15,47,13.80
2018,08,19,15,48,14.10
2018,08,19,15,49,14.40
2018,08,19,15,50,14.70
2018,08,19,15,51,15.00
2018,08,19,15,52,15.30
2018,08,19,15,53,15.50
2018,08,19,15,54,15.60
2018,08,19,15,55,15.70
2018,08,19,15,56,15.80
2018,08,19,15,57,15.70
2018,08,19,15,58,15.70
2018,08,19,15,59,15.80
2018,08,19,16,00,15.80
2018,08,19,16,01,15.80
2018,08,19,16,02,15.90
2018,08,19,16,03,15.90
2018,08,19,16,04,15.80
2018,08,19,16,05,15.70
2018,08,19,16,06,15.70
2018,08,19,16,07,15.80
2018,08,19,16,08,15.90
2018,08,19,16,09,15.90
2018,08,19,16,10,15.90
2018,08,19,16,11,15.90
2018,08,19,16,12,15.90
2018,08,19,16,13,16.00
2018,08,19,16,14,16.00
2018,08,19,16,15,16.10
2018,08,19,16,16,16.10
2018,08,19,16,17,16.20
2018,08,19,16,18,16.20
2018,08,19,16,19,16.30
2018,08,19,16,20,16.30
2018,08,19,16,21,16.40
2018,08,19,16,22,16.40
2018,08,19,16,23,16.40
2018,08,19,16,24,16.40
2018,08,19,16,25,16.40
2018,08,19,16,26,16.40
2018,08,19,16,27,16.30
2018,08,19,16,28,16.20
2018,08,19,16,29,16.10
2018,08,19,16,30,15.90
2018,08,19,16,31,15.70
2018,08,19,16,32,15.60
2018,08,19,16,33,15.50
2018,08,19,16,34,15.40
2018,08,19,16,35,15.30
2018,08,19,16,36,15.10
2018,08,19,16,37,15.00
2018,08,19,16,38,15.00
2018,08,19,16,39,15.10
2018,08,19,16,40,15.20
2018,08,19,16,41,15.10
2018,08,19,16,42,15.00
2018,08,19,16,43,14.90
2018,08,19,16,44,14.80
2018,08,19,16,45,14.80
2018,08,19,16,46,14.70
2018,08,19,16,47,14.70
2018,08,19,16,48,14.60
2018,08,19,16,49,14.50
2018,08,19,16,50,14.40
2018,08,19,16,51,14.40
2018,08,19,16,52,14.40
2018,08,19,16,53,14.30
2018,08,19,16,54,14.30
2018,08,19,16,55,14.20
2018,08,19,16,56,14.20
2018,08,19,16,57,14.10
2018,08,19,16,58,14.10
2018,08,19,16,59,14.00
2018,08,19,17,00,13.90
2018,08,19,17,01,13.90
2018,08,19,17,02,13.80
2018,08,19,17,03,13.80
2018,08,19,17,04,13.70
2018,08,19,17,05,13.70
2018,08,19,17,06,13.60
2018,08,19,17,07,13.50
2018,08,19,17,08,13.50
2018,08,19,17,09,13.40
2018,08,19,17,10,13.30
2018,08,19,17,11,13.30
2018,08,19,17,12,13.20
2018,08,19,17,13,13.20
2018,08,19,17,14,13.10
2018,08,19,17,15,13.00
2018,08,19,17,16,12.90
2018,08,19,17,17,12.80
2018,08,19,17,18,12.80
2018,08,19,17,19,12.70
2018,08,19,17,20,12.70
2018,08,19,17,21,12.60
2018,08,19,17,22,12.60
2018,08,19,17,23,12.60
2018,08,19,17,24,12.60
2018,08,19,17,25,12.50
2018,08,19,17,26,12.50
2018,08,19,17,27,12.50
2018,08,19,17,28,12.40
2018,08,19,17,29,12.40
2018,08,19,17,30,12.40
2018,08,19,17,31,12.40
2018,08,19,17,32,12.40
2018,08,19,17,33,12.40
2018,08,19,17,34,12.40
2018,08,19,17,35,12.40
2018,08,19,17,36,12.40
2018,08,19,17,37,12.40
2018,08,19,17,38,12.40
2018,08,19,17,39,12.30
2018,08,19,17,40,12.30
2018,08,19,17,41,12.30
2018,08,19,17,42,12.30
2018,08,19,17,43,12.40
2018,08,19,17,44,12.40
2018,08,19,17,45,12.40
2018,08,19,17,46,12.40
2018,08,19,17,47,12.40
2018,08,19,17,48,12.40
2018,08,19,17,49,12.40
2018,08,19,17,50,12.40
2018,08,19,17,51,12.40
2018,08,19,17,52,12.50
2018,08,19,17,53,12.50
2018,08,19,17,54,12.50